Location: ??
(35.1714°N, 128.2806°E)
Time: 15:31:35
(UTC+00:00)

Cosmos 1484 Rocket - Pass Details

Date: 29 October 2020
Orbit: 504 x 560 km, 97.4° (Epoch: 30 November)

Event Time Altitude Azimuth Distance (km) Brightness Sun altitude
Rises 19:38:16 0° 19° (NNE) 2,671 6.6 -26.7°
Reaches altitude 10° 19:40:29 10° 26° (NNE) 1,768 5.7 -26.2°
Maximum altitude 19:44:07 43° 98° (E) 735 3.8 -25.5°
Drops below altitude 10° 19:47:40 10° 172° (S) 1,728 5.4 -24.7°
Sets 19:49:48 0° 179° (S) 2,602 6.3 -24.3°
